Probability
0 0 0 0 0 0 0 0 0 0 0 0 0 0 0 0 0 0 0 0 1 1 0 0 0 0 0 0 0 0 0 0 0 0 0 0 0 0 0 0 0 0 0
0 0 0 0 0 0 0 0 0 0 0 0 0 0 0 0 0 0 0 0 1 1 1 0 0 0 0 0 0 0 0 0 0 0 0 0 0 0 0 0 0 0 0
0 0 0 0 0 0 0 0 0 0 0 0 0 0 0 0 0 0 0 0 1 1 1 0 0 0 0 0 0 0 0 0 0 0 0 0 0 0 0 0 0 0 0
0 0 0 0 0 0 0 0 0 0 0 0 0 0 0 0 0 0 0 0 0 0 0 0 1 1 0 0 0 0 0 0 0 0 0 0 0 0 0 0 0 0 0
0 0 0 0 0 0 0 0 0 0 0 0 0 0 0 0 0 0 0 0 0 0 0 0 1 1 1 0 0 0 0 0 0 0 0 0 0 0 0 0 0 0 0
0 0 0 0 0 0 0 0 0 0 0 0 0 0 0 0 0 0 0 0 0 0 0 0 1 1 1 0 0 0 0 0 0 0 0 0 0 0 0 0 0 0 0
0 0 0 0 0 0 0 0 0 0 0 0 0 0 0 0 0 0 0 0 0 0 0 0 0 0 0 0 0 0 0 0 0 0 0 0 0 0 0 1 1 1 0
0 0 0 0 0 0 0 0 0 0 0 0 0 0 0 0 0 0 0 0 0 0 0 0 0 0 0 0 0 0 0 0 0 0 0 0 0 0 0 1 1 1 0
0 0 0 0 0 0 0 0 0 0 0 0 0 0 0 0 0 0 0 0 0 0 0 0 0 0 0 0 0 0 0 0 0 0 0 0 0 0 0 0 0 0 0
0 0 0 0 0 0 0 0 0 0 0 0 0 0 0 0 0 0 0 0 0 0 0 0 0 0 0 0 0 0 0 0 0 0 0 0 0 0 0 0 0 0 0
1 0 0 0 0 0 0 0 0 0 0 0 0 0 0 0 0 0 0 0 0 0 0 0 0 0 0 0 0 0 0 0 0 0 0 0 0 0 0 0 0 0 0
2 1 0 0 0 0 0 0 0 0 0 0 0 0 0 0 0 0 0 0 0 0 0 0 0 0 0 0 0 0 0 0 0 0 0 0 0 0 0 0 0 0 0
2 1 0 0 0 0 0 0 0 0 0 0 0 0 0 0 0 0 0 0 0 0 0 0 0 0 0 0 0 0 1 0 0 0 0 0 0 0 0 0 0 0 0
1 1 0 1 1 1 1 0 0 0 0 0 0 0 0 0 0 0 0 0 0 0 0 0 0 0 0 0 0 0 0 0 0 0 0 0 0 0 0 0 0 0 1
0 0 0 1 2 2 2 1 1 0 0 0 0 0 0 0 0 0 0 0 0 0 0 0 0 0 0 0 0 0 0 0 0 0 0 0 0 0 0 0 0 0 1
0 0 0 1 2 3 3 2 2 1 0 0 0 0 0 0 0 0 0 0 0 0 0 0 0 0 0 0 0 0 0 0 0 0 0 0 0 0 0 0 0 0 1
0 0 0 0 1 2 2 3 3 2 1 0 0 0 0 0 0 0 0 0 0 0 0 0 0 0 0 0 0 0 0 0 0 0 0 0 0 0 0 0 0 0 0
0 0 0 0 0 0 1 2 3 3 2 1 0 0 0 0 0 0 0 0 0 0 0 0 0 0 0 0 0 0 0 0 0 0 0 0 0 0 0 0 0 0 0
0 0 0 0 0 0 0 1 3 3 3 2 1 0 0 0 0 0 0 0 0 0 0 0 0 0 0 0 0 0 0 0 0 0 0 0 0 0 0 0 0 0 0
0 0 0 0 0 0 0 1 2 3 3 3 1 0 0 0 0 0 0 0 0 0 0 0 0 0 0 0 0 0 0 0 0 0 0 0 0 0 0 0 0 0 0
0 0 0 0 0 0 0 0 1 2 3 3 2 0 0 0 0 0 0 0 0 0 0 0 0 0 0 0 0 0 0 0 0 0 0 0 0 0 0 0 0 0 0
1 1 0 0 0 0 0 0 0 1 2 2 1 0 0 0 0 0 0 0 0 0 0 0 0 0 0 0 0 0 0 0 0 0 0 0 0 0 0 0 0 0 0
4 3 1 1 0 0 0 0 0 0 1 1 0 0 0 0 0 0 0 0 0 0 0 0 0 0 0 0 0 0 0 0 0 0 0 0 0 0 0 0 0 0 0
5 4 3 2 1 0 0 0 0 0 0 0 0 0 0 0 0 0 0 0 0 0 0 0 0 0 0 0 0 0 0 0 0 0 0 0 0 0 0 0 0 0 0
4 4 3 2 1 0 0 0 0 0 0 0 0 0 0 0 0 0 0 0 0 0 0 0 0 0 0 0 0 0 0 0 0 0 0 0 0 0 0 0 0 0 0
3 3 3 1 0 0 0 0 0 0 0 1 1 1 0 0 0 0 0 0 0 0 0 0 0 0 0 0 0 0 0 0 0 0 0 0 0 0 0 0 0 0 0
Wind_Speed
2 2 2 2 2 2 2 1 2 4 4 5 5 6 6 6 6 5 5 12 12 12 12 12 12 12 11 11 11 12 12 12 12 12 11 10 10 10 9 9 9 8 8
2 2 2 2 2 2 1 2 3 3 3 4 4 5 4 5 4 5 5 7 11 12 12 12 12 12 11 11 11 11 12 12 11 11 11 10 10 9 9 9 9 9 8
2 3 3 2 2 2 3 3 3 3 3 3 3 4 3 4 4 4 4 4 5 9 11 11 11 11 11 11 11 11 11 11 11 11 10 10 10 9 9 9 9 8 8
3 3 2 2 2 2 3 2 2 2 2 2 2 2 2 3 3 3 3 4 3 4 6 10 10 10 10 11 11 10 10 11 10 10 10 9 9 8 8 8 8 8 7
3 3 2 1 2 2 2 2 2 2 2 2 2 2 2 2 2 3 3 4 4 4 4 6 9 10 10 10 10 10 10 10 10 10 9 9 8 8 8 8 8 8 8
2 3 2 2 3 3 2 2 2 2 1 1 1 2 1 2 2 2 3 3 3 4 4 4 4 5 8 9 9 9 9 9 9 9 9 8 8 7 7 8 8 8 8
2 3 2 2 2 2 2 2 2 2 1 1 2 1 1 2 2 2 2 2 3 3 3 3 3 3 3 6 7 8 9 9 9 9 9 8 8 7 7 7 8 8 8
1 2 2 2 2 2 2 1 2 1 0 0 1 1 1 2 2 1 1 2 2 2 2 4 4 4 3 2 5 8 7 8 8 8 8 8 8 7 7 7 8 8 8
2 2 2 2 2 2 2 1 1 1 0 1 1 1 1 1 0 1 1 1 2 2 2 2 3 4 4 3 3 5 8 7 7 8 8 8 8 7 7 7 7 7 7
2 2 1 1 2 2 2 1 1 1 1 1 1 1 1 2 1 0 2 1 2 2 2 2 3 3 4 3 4 6 7 7 8 8 8 8 8 8 7 7 6 6 6
2 2 1 1 1 1 1 1 1 1 1 1 0 0 1 1 1 2 0 1 1 1 1 2 2 3 3 3 3 5 7 6 7 7 8 8 8 8 8 7 6 6 6
1 2 1 1 1 1 1 1 1 1 1 1 1 1 1 1 0 1 1 1 1 1 1 1 2 2 2 3 4 6 6 6 6 6 7 7 7 7 7 7 7 6 5
1 1 1 1 1 1 1 1 1 1 1 1 1 0 1 0 1 1 1 0 0 1 1 1 1 2 3 3 3 5 5 5 5 5 6 6 6 6 6 6 6 6 5
1 2 2 1 1 1 2 2 1 1 1 1 1 1 1 1 1 1 1 1 0 1 1 1 1 2 2 2 3 3 2 4 4 5 5 5 5 5 6 6 6 6 5
1 2 2 2 1 1 2 2 1 1 1 1 1 1 1 1 1 1 1 1 2 1 1 0 1 1 1 2 3 2 2 3 4 3 4 4 5 5 5 5 5 5 5
2 2 2 2 2 2 2 2 1 1 2 1 1 1 1 0 1 1 1 1 1 2 0 0 0 1 1 2 3 2 2 3 3 3 3 3 4 5 6 6 6 5 5
2 2 1 2 2 2 2 2 1 1 2 1 1 1 1 1 1 1 1 1 1 1 1 1 1 0 1 1 1 1 1 1 1 3 3 3 4 4 5 5 6 6 6
2 2 2 1 1 2 2 2 2 1 1 1 1 1 1 1 1 0 0 0 0 1 1 0 1 0 0 1 1 0 0 1 1 2 2 3 3 4 4 4 5 5 6
2 2 2 2 1 1 2 2 2 1 1 1 1 1 1 2 1 0 0 0 0 0 1 1 1 0 0 1 1 1 1 0 1 1 2 2 2 2 3 3 4 4 5
1 2 2 2 2 1 1 1 2 1 1 1 1 1 1 2 2 1 1 1 1 1 0 0 1 1 1 1 1 1 1 1 1 1 1 1 1 1 2 2 2 3 4
1 1 2 1 1 1 1 1 1 1 1 1 1 1 1 2 2 2 1 1 1 1 1 0 1 1 1 0 1 1 1 1 1 1 0 0 1 1 1 0 1 1 2
1 1 1 1 1 1 3 3 1 1 1 1 2 2 2 2 3 4 4 3 2 1 1 1 1 1 2 1 1 1 0 0 2 1 0 1 0 0 1 1 2 1 0
1 1 1 2 1 2 3 2 1 1 1 1 1 1 1 2 4 2 1 2 1 1 0 1 1 1 1 1 1 1 1 1 2 2 0 1 1 1 1 1 3 3 3
2 2 1 2 2 2 3 2 0 1 1 1 1 1 2 2 2 3 1 1 0 1 1 1 1 1 1 1 1 1 2 1 1 1 1 1 1 1 2 1 3 4 4
2 2 2 3 3 2 3 2 1 1 1 1 1 1 1 2 2 3 2 1 1 0 1 0 0 1 2 3 2 1 1 1 2 2 0 0 1 2 2 2 2 4 4
3 2 2 3 3 3 4 4 3 1 1 1 1 1 1 2 2 3 2 2 2 2 1 0 1 2 1 2 2 1 1 1 1 2 2 0 1 1 2 2 1 1 2
Wind_Direction
109 97 100 90 83 82 81 52 43 52 49 45 54 66 73 80 90 87 74 72 71 69 68 68 67 66 66 69 69 67 66 66 65 64 63 63 64 65 64 61 59 58 58
124 118 96 87 78 83 73 64 67 62 59 60 57 58 68 77 88 102 103 81 74 70 68 68 67 67 66 66 67 67 65 65 64 63 63 63 62 63 64 63 63 62 61
95 92 89 87 83 80 71 61 59 56 70 68 65 64 66 75 88 97 109 112 90 75 74 70 66 64 63 64 66 67 66 65 65 62 60 60 60 62 62 62 63 63 61
85 83 83 88 86 75 74 78 65 65 63 64 61 55 63 68 71 87 106 110 109 99 82 77 69 63 62 62 65 65 66 65 64 62 59 58 57 59 60 61 61 59 57
81 90 82 94 92 80 73 74 67 68 73 71 77 72 64 73 66 65 77 94 104 115 112 93 80 69 63 62 62 61 63 63 62 60 57 55 55 56 56 56 56 55 55
79 91 89 79 81 77 64 63 74 63 78 83 79 84 92 100 75 57 59 69 80 97 109 116 105 79 69 62 60 59 60 59 59 57 54 52 53 55 55 55 54 53 51
64 85 88 80 85 94 95 86 84 77 59 86 76 49 33 72 96 83 63 69 69 69 88 102 102 101 84 68 58 59 57 56 53 52 48 46 50 54 57 58 55 53 51
76 90 101 91 90 99 96 96 95 83 327 12 121 115 65 19 14 99 92 81 86 78 66 76 82 84 82 84 62 61 55 56 54 51 46 43 49 55 60 59 56 53 50
69 77 84 113 129 131 140 121 110 106 0 331 35 103 119 151 331 2 97 108 98 90 77 67 74 78 79 80 77 58 57 51 50 49 47 44 46 51 55 56 53 50 46
97 104 113 110 123 125 135 160 145 135 120 316 337 13 96 131 135 52 349 42 96 96 87 76 73 78 84 82 83 77 67 52 47 46 44 43 43 43 47 49 48 47 45
95 95 86 74 99 117 137 137 121 122 141 174 233 7 11 14 62 118 177 337 18 57 98 96 91 84 84 88 87 79 76 60 48 43 40 38 37 38 40 40 40 41 42
90 85 86 87 128 136 138 149 134 130 103 80 39 47 87 96 98 105 152 179 163 235 132 101 105 105 95 89 83 83 81 70 56 43 36 32 33 31 31 31 30 31 34
98 98 67 43 73 99 111 111 115 137 114 98 87 54 39 75 107 101 111 158 157 227 128 103 117 107 98 98 87 84 82 76 62 47 36 31 28 25 23 22 21 22 26
122 118 109 82 56 70 87 82 88 98 102 117 108 98 63 7 45 82 116 120 68 345 45 91 84 92 96 105 103 105 87 84 69 50 38 32 28 25 20 14 11 16 25
126 121 124 123 106 77 82 92 79 89 74 66 101 97 79 16 46 51 67 119 134 132 311 38 49 87 105 107 115 108 88 86 76 56 43 37 32 27 22 18 18 23 31
114 118 118 119 117 102 84 88 81 95 100 77 90 89 87 55 56 47 24 16 78 135 190 276 151 138 112 104 107 121 103 101 94 72 58 48 40 33 30 31 37 41 46
129 119 126 127 136 139 122 113 112 103 117 130 111 112 126 110 95 46 38 36 42 84 123 310 36 93 83 91 98 129 117 115 93 83 72 63 50 41 36 39 45 46 46
154 147 136 128 134 134 140 134 136 130 130 140 145 135 167 122 110 90 66 66 73 97 125 227 330 5 23 118 107 150 127 126 138 115 114 85 64 54 47 46 48 49 49
152 145 129 132 124 120 131 138 142 152 151 158 152 153 156 132 139 111 130 80 58 73 120 147 266 312 342 22 35 345 346 3 175 150 144 122 93 71 61 54 53 54 49
151 153 146 141 135 123 118 137 141 145 145 144 138 99 117 136 144 148 144 145 109 78 84 119 269 283 274 301 77 317 319 319 321 357 77 146 152 119 83 68 64 59 48
161 143 139 134 129 136 111 95 142 161 179 171 142 119 98 97 105 123 119 125 125 146 155 191 255 291 294 343 265 247 262 277 304 327 20 260 173 174 173 144 100 64 44
179 149 151 150 139 107 101 91 61 291 209 156 169 170 153 127 100 77 71 82 109 147 166 178 241 243 261 247 268 269 234 330 301 298 98 282 125 211 206 179 180 174 183
165 174 191 150 133 134 132 121 65 302 251 171 166 145 136 114 115 103 67 53 26 360 176 176 198 245 261 255 254 288 270 241 242 253 100 282 309 301 277 211 195 203 225
176 193 197 154 144 152 150 148 190 262 247 192 156 141 133 141 128 123 135 105 65 348 282 266 201 264 286 278 234 239 250 276 287 304 104 260 287 286 296 263 222 224 233
192 197 194 177 169 172 172 167 144 260 250 229 179 149 151 146 122 109 121 136 125 311 312 320 350 311 332 343 350 31 358 351 300 285 288 157 273 290 277 257 243 235 245
206 196 198 195 175 174 184 182 180 216 237 242 228 192 166 152 149 145 154 171 196 228 206 258 287 289 287 310 327 192 187 219 275 283 281 168 276 321 305 277 253 250 257